Location: Chiry
(47.3838°N, 3.3784°E)
Time: 06:11:57
(UTC+00:00)

Daily predictions for brighter satellites

Satellite Brightness Start Highest point End
(mag) Time Altitude Azimuth Time Altitude Azimuth Time Altitude Azimuth
Cosmos 1900 4.4 19:39:50 10° SSW 19:44:40 59° ESE 19:49:37 10° NE
MONITOR-E 3.6 19:45:40 10° S 19:48:02 79° WSW 19:50:26 10° NNW
USA 267 3.5 19:42:38 10° ENE 19:48:55 47° SE 19:55:11 10° SSW
Cosmos 1821 Rocket 4.3 19:46:23 10° SSE 19:52:10 46° E 19:58:03 10° NNE
Shenzhou-11 Module 2.7 19:51:39 10° WSW 19:53:43 26° S 19:55:30 12° SE
COSMOS 2406 3.4 19:48:18 10° S 19:53:52 52° ESE 19:59:25 10° NE
Cosmos 1743 Rocket 3.8 19:50:44 10° SSW 19:55:11 80° W 19:59:41 10° N
Cosmos 2366 rocket 4.3 19:49:47 10° SSW 19:56:02 75° W 20:02:16 10° N
CZ-2C R/B 3.8 19:51:55 10° NNE 19:56:31 58° ESE 20:00:59 10° S
SL-16 R/B 4.3 19:53:47 10° N 19:56:47 14° NE 19:59:48 10° ENE
Intercosmos 25 3.7 19:53:26 10° N 19:57:58 48° ENE 20:01:16 10° SSE
Lacrosse 5 3.5 19:55:16 10° NW 19:59:42 29° N 20:04:08 10° ENE
Cosmos 2369 4.1 19:57:13 10° NNW 20:02:50 52° ENE 20:08:05 12° SE
Cosmos 1862 3.3 19:59:24 10° S 20:03:24 68° E 20:07:28 10° NNE
Sich 1 3.4 20:00:09 10° SSE 20:04:22 45° E 20:08:37 10° NNE
SJ-6B 4.2 20:01:58 10° SSW 20:05:48 39° W 20:09:37 10° NNW
Meteor 2-6 Rocket 4.3 20:01:35 10° NNW 20:07:05 82° W 20:12:43 10° S
Cosmos 1818 3.6 20:01:57 10° NW 20:07:26 74° NE 20:12:24 13° SE
BREEZE-M DEB (TANK) 2.3 20:03:54 10° W 20:07:39 64° N 20:09:37 10° ENE
IRIDIUM 106 4.3 20:03:06 10° S 20:08:17 74° E 20:13:31 10° N
Cosmos 2082 Rocket 3.0 20:04:19 10° SSE 20:09:09 29° ESE 20:13:59 10° NE
Cosmos 2278 4.4 20:06:36 10° NNW 20:12:04 43° NE 20:16:44 14° ESE
Cosmos 2123 Rocket 4.4 20:06:45 10° N 20:12:41 44° ENE 20:18:06 12° SE
Cosmos 1500 Rocket 4.4 20:10:25 10° SSW 20:14:37 52° WNW 20:18:52 10° N
Spot 2 Rocket 4.0 20:11:25 12° SE 20:15:51 45° ENE 20:20:42 10° N
Cosmos 2322 Rocket 4.2 20:15:56 10° N 20:19:27 16° NE 20:22:58 10° ENE
Resurs 1-3 4.2 20:15:11 10° S 20:19:30 59° W 20:23:52 10° NNW
Meteor 1-4 Rocket 3.3 20:17:09 10° N 20:20:24 34° ENE 20:22:27 18° SE
Cosmos 2239 Rocket 4.5 20:15:23 10° S 20:21:26 65° E 20:27:31 10° NNE
Cosmos 1190 Rocket 4.3 20:16:56 10° S 20:21:55 45° ESE 20:26:58 10° NNE
Cosmos 1184 Rocket 4.3 20:21:02 17° ESE 20:22:00 20° E 20:24:28 10° NE
Terra 3.5 20:21:08 12° ESE 20:24:02 20° ENE 20:27:27 10° NNE
CZ-2C R/B 3.4 20:19:10 10° N 20:24:12 53° WNW 20:29:15 10° SW
Cosmos 407 Rocket 3.6 20:19:36 10° S 20:24:49 58° ESE 20:30:01 10° NNE
USA 234 3.4 20:18:46 12° ESE 20:24:52 71° NNE 20:31:23 10° NW
SL-8 R/B 4.4 20:20:51 10° W 20:25:24 41° SSW 20:28:49 16° SSE
Cosmos 1666 Rocket 3.7 20:21:47 10° SSE 20:25:57 50° E 20:30:09 10° NNE
Cosmos 1238 Rocket 4.1 20:28:02 14° E 20:28:02 14° E 20:29:40 10° NE
MetOp-B 4.1 20:25:44 12° SSE 20:30:46 79° ENE 20:36:10 10° NNW
Meteor 1-27 Rocket 3.8 20:25:15 10° N 20:31:12 83° E 20:36:53 11° SSE
Cosmos 2360 Rocket 4.4 20:30:45 10° N 20:33:20 13° NNE 20:35:55 10° ENE
ERBS 4.4 20:33:51 10° W 20:36:47 28° NNW 20:39:44 10° NE
BREEZE-M DEB (TANK) 3.9 20:33:19 10° WNW 20:37:00 19° SW 20:39:00 11° S
USA 238 DEB 4.3 20:31:53 10° S 20:37:37 32° ESE 20:43:31 10° NE
Cosmos 1805 Rocket 4.1 20:33:19 10° SSW 20:37:42 62° WNW 20:42:08 10° N
USA 238 4.3 20:32:02 10° S 20:37:43 32° ESE 20:43:36 10° NE
SPOT 5 3.6 20:35:54 19° ESE 20:38:12 31° ENE 20:42:01 10° N
Cosmos 1980 Rocket 2.4 20:37:41 10° NNW 20:43:21 63° ENE 20:47:05 21° SE
SPOT 1/Viking Rocket 3.7 20:39:53 19° SSE 20:43:40 64° ENE 20:48:51 10° N
SL-4 R/B 1.9 20:43:33 10° SW 20:47:24 52° SSE 20:50:59 10° ENE
BREEZE-M DEB (TANK) 2.6 20:45:45 10° W 20:48:25 74° N 20:55:17 10° ENE
Genesis I 3.5 20:45:02 10° NNW 20:48:51 55° NE 20:50:44 27° ESE
Cosmos 405 Rocket 3.8 20:49:21 24° ESE 20:49:45 24° E 20:52:47 10° NE
Cosmos 1140 Rocket 3.4 20:45:14 10° SSW 20:50:27 75° ESE 20:55:43 10° NNE
ATLAS 5 CENTAUR R/B 3.4 20:46:27 10° NW 20:51:50 39° WSW 20:57:17 13° S
Cosmos 1023 Rocket 4.4 20:49:42 10° SSW 20:54:58 83° ESE 21:00:17 10° NNE
USA 32 4.1 20:53:02 19° SSE 20:56:42 60° E 21:01:52 10° NNE
Cosmos 1812 4.4 20:54:20 10° NNW 20:57:45 31° W 21:01:09 10° SSW
Cosmos 1697 Rocket 3.1 20:53:31 10° NW 20:59:02 58° WSW 21:03:04 18° S
Cosmos 1633 Rocket 3.0 20:55:05 12° S 20:59:12 88° W 21:03:40 10° N
Cosmos 1833 Rocket 2.9 20:54:01 10° SSW 20:59:37 74° WNW 21:05:16 10° NNE
Cosmos 1867 3.5 21:00:38 10° SSW 21:05:58 60° ESE 21:11:21 10° NE
CENTAUR R/B 3.2 21:04:45 26° SE 21:06:15 28° ESE 21:11:52 10° NE
Okean 1-7 4.0 21:03:29 10° N 21:07:22 31° ENE 21:08:30 27° ESE
Resurs 01 Rocket 3.4 21:05:53 10° SSW 21:09:41 28° W 21:13:30 10° NW
Landsat 7 4.2 21:09:00 19° S 21:12:16 59° W 21:16:59 10° NNW
FALCON 9 DEB 3.0 21:09:38 10° SW 21:13:06 63° SSE 21:15:22 20° ENE
deb Kosmos-1763 4.1 21:14:16 18° SSW 21:16:49 79° WNW 21:20:29 10° NNE
Cosmos 1515 4.4 21:14:14 10° N 21:17:50 37° ENE 21:18:22 35° E
Cosmos 676 Rocket 3.9 21:14:03 10° SSW 21:19:21 83° ESE 21:24:43 10° NNE
IGS 5A 4.4 21:17:34 20° SSW 21:20:07 43° W 21:24:05 10° NNW
Cosmos 192 4.3 21:15:51 10° NNW 21:20:47 80° WSW 21:22:57 34° SSE
ATLAS 5 CENTAUR R/B 3.4 21:18:41 10° NNW 21:20:56 24° NE 21:23:25 16° E
Meteor 1-25 Rocket 4.1 21:17:53 21° S 21:21:40 78° E 21:27:17 10° NNE
Cosmos 1470 Rocket 3.5 21:19:31 27° S 21:21:56 90° E 21:26:21 10° N
Cosmos 1934 Rocket 4.4 21:17:39 10° SSW 21:23:58 65° WNW 21:30:20 10° N
Aureole 1 Rocket 4.4 21:18:24 10° SSW 21:25:11 85° WNW 21:33:31 10° NNE
GP-B 3.8 21:23:21 10° N 21:27:41 52° W 21:30:41 19° SSW
NOSS 3-2 (A) 3.3 21:26:20 10° SSW 21:31:58 68° SE 21:38:26 10° NE
USA 267 3.6 21:25:38 10° NE 21:32:07 67° NNW 21:38:36 10° WSW
Cosmos 921 Rocket 2.9 21:29:31 10° NNW 21:33:45 79° WSW 21:34:51 48° S
Cosmos 1862 Rocket 4.5 21:31:39 10° NNW 21:35:55 45° W 21:38:10 24° SSW
NOSS 3-2 (C) 3.5 21:35:51 34° S 21:37:57 48° ESE 21:44:06 10° NE
ERS-1 Rocket 3.2 21:36:08 31° S 21:38:28 64° WSW 21:43:29 10° NNW
Cosmos 841 Rocket 4.3 21:35:26 10° N 21:40:19 38° ENE 21:42:00 30° E
SAR-Lupe-2 3.7 21:37:28 10° N 21:41:03 69° WNW 21:41:56 47° SW
Cosmos 540 Rocket 4.3 21:36:56 10° N 21:41:46 38° ENE 21:43:22 30° E
SL-16 R/B 2.5 21:36:37 10° NNW 21:42:14 57° ENE 21:44:17 37° ESE
Lacrosse 5 2.2 21:38:25 10° NW 21:43:28 61° NNE 21:45:31 34° E
Cosmos 468 Rocket 4.0 21:38:44 10° NNW 21:44:05 82° ENE 21:45:45 45° SSE
Cosmos 1741 Rocket 4.0 21:48:23 46° SSE 21:49:34 58° ESE 21:54:45 10° NNE
Cosmos 2219 Rocket 4.4 21:49:00 10° N 21:52:42 17° NE 21:56:24 10° E
Cosmos 2082 Rocket 3.1 21:47:27 10° SW 21:52:59 50° WNW 21:58:30 10° NNE
Terra 2.1 22:00:02 42° SSW 22:01:22 59° W 22:06:05 10° NNW
Cosmos 1933 Rocket 4.3 22:01:22 30° SW 22:03:14 49° WNW 22:07:33 10° N
Cosmos 2322 Rocket 2.3 21:58:56 10° NNW 22:04:37 68° ENE 22:06:13 47° SE
Okean 1 4.2 22:02:34 10° NNW 22:06:24 41° W 22:07:06 38° WSW
Cosmos 1238 Rocket 4.2 22:06:54 22° W 22:07:22 23° WNW 22:09:49 10° NNW
Cosmos 2100 Rocket 3.9 22:05:36 44° S 22:07:41 77° E 22:13:50 10° NNE
USA 234 3.8 22:06:06 35° S 22:08:07 44° SW 22:14:20 10° WNW
Meteor 1-11 Rocket 4.2 22:09:09 41° ESE 22:09:46 42° E 22:15:08 10° NNE
Cosmos 1437 Rocket 3.1 22:07:04 10° NNW 22:10:48 53° W 22:10:50 53° W
Cosmos 1242 Rocket 4.5 22:09:51 10° NNE 22:12:07 21° NE 22:12:07 21° NE
Cosmos 1869 Rocket 3.4 22:13:01 78° S 22:13:18 87° ESE 22:17:48 10° N
SPOT 5 4.0 22:15:08 25° WSW 22:16:17 29° W 22:20:05 10° NW
Cosmos 2360 Rocket 2.7 22:13:15 10° NNW 22:18:47 50° ENE 22:20:20 39° E
ATLAS 3B R/B 3.1 22:21:12 38° ESE 22:21:12 38° ESE 22:27:03 10° NE
Geosat 3.9 22:20:48 63° SE 22:21:38 85° ENE 22:26:42 10° NNW
Iridium 4 Rocket 2.9 22:21:45 80° SW 22:21:56 84° W 22:26:12 10° N
Cosmos 2173 Rocket 3.9 22:21:11 45° S 22:23:15 88° W 22:29:25 10° N
Cosmos 1703 Rocket 4.5 22:19:31 10° NNW 22:23:35 39° W 22:24:15 36° WSW
Cosmos 1500 3.5 22:25:10 62° NNW 22:25:10 62° NNW 22:28:28 10° N
CRYOSAT 2 4.4 22:21:45 10° N 22:26:37 61° E 22:26:46 61° ESE
Cosmos 1980 Rocket 3.9 22:22:33 10° NW 22:26:51 23° W 22:28:51 19° SW
SL-4 R/B 2.5 22:23:20 10° W 22:27:02 50° NNW 22:27:12 50° N
ALOS 2 3.6 22:27:44 34° ENE 22:27:50 34° ENE 22:31:48 10° N
USA 238 DEB 4.0 22:21:31 10° SW 22:28:07 64° NW 22:35:03 10° NE
USA 238 4.0 22:21:37 10° SW 22:28:13 65° NW 22:35:09 10° NE
Cosmos 1725 Rocket 4.1 22:27:19 50° SE 22:28:35 59° E 22:34:48 10° NNE
Cosmos 1763 Rocket 4.0 22:25:06 10° NNW 22:30:13 49° WSW 22:31:09 44° SW
SL-08 R/B 4.4 22:32:19 55° SE 22:33:24 65° E 22:39:27 10° NNE
Cosmos 1674 Rocket 4.5 22:29:26 10° N 22:33:13 37° ENE 22:33:13 37° ENE
Cosmos 1536 3.7 22:34:39 40° NE 22:34:39 40° NE 22:37:34 10° NNE
Cosmos 1666 3.6 22:37:32 42° NNE 22:37:32 42° NNE 22:40:11 10° NNE
Cosmos 2333 Rocket 3.5 22:33:56 10° NNW 22:39:09 34° NE 22:41:19 26° E
Cosmos 2016 Rocket 3.9 22:39:51 54° S 22:41:28 87° E 22:47:53 10° N
Meteor 1-5 Rocket 4.4 22:40:38 48° SSW 22:42:21 76° WNW 22:48:20 10° N
Meteor 1-13 Rocket 4.1 22:37:01 10° NNW 22:42:35 79° W 22:43:23 65° SSW
Cosmos 2061 Rocket 3.9 22:41:23 55° S 22:42:52 88° E 22:49:06 10° N
Lacrosse 4 Rocket 3.6 22:45:24 16° ENE 22:45:24 16° ENE 22:46:30 10° NE
Cosmos 1459 Rocket 4.3 22:42:35 39° SW 22:44:56 64° WNW 22:51:17 10° N
MOS 1-B Rocket 3.8 22:39:43 10° NNE 22:45:27 83° WNW 22:46:44 56° SSW
Cosmos 2221 Rocket 3.6 22:42:11 10° NNW 22:46:28 74° WNW 22:46:28 74° WNW
Cosmos 1733 Rocket 3.4 22:50:59 59° NE 22:50:59 59° NE 22:54:46 10° NNE
Okean 3 4.0 22:46:34 10° NNW 22:50:30 53° W 22:50:30 53° W
SL-27 R/B 4.1 22:53:08 31° NNW 22:53:08 31° NNW 22:55:28 10° N
Cosmos 1066 Rocket 4.1 22:47:21 10° N 22:53:07 76° ENE 22:53:46 67° SE
Cosmos 1864 Rocket 4.4 22:53:23 59° S 22:54:40 89° W 23:00:58 10° N
Meteor 1-23 Rocket 4.2 22:49:04 10° N 22:54:56 75° ENE 22:55:42 65° SE
CENTAUR R/B 2.9 22:51:50 20° SW 22:56:15 67° NW 23:03:28 10° NE
Thor Agena Rocket 3.3 22:51:34 10° NNE 22:56:41 90° W 22:57:00 80° SSW
Cosmos 967 Rocket 4.4 22:53:43 10° NW 23:00:06 75° WSW 23:01:03 63° S
Cosmos 1802 Rocket 4.4 22:58:40 40° SW 23:00:51 60° WNW 23:07:10 10° N
Cosmos 44 3.5 22:56:59 10° NW 23:01:33 60° WSW 23:01:33 60° WSW
Spot 4 4.2 23:06:34 55° W 23:06:34 55° W 23:11:15 10° NNW
Cosmos 1378 4.4 23:09:56 10° N 23:12:29 40° N 23:12:29 40° N
Cosmos 2233 Rocket 3.9 23:14:31 65° S 23:15:32 85° E 23:21:55 10° N
Cosmos 1908 Rocket 4.4 23:18:33 43° NE 23:18:33 43° NE 23:21:54 10° NNE
SL-16 R/B 3.6 23:21:23 10° NW 23:25:57 26° WSW 23:26:08 25° WSW
Lacrosse 5 3.2 23:21:42 10° WNW 23:24:40 27° W 23:24:40 27° W
Cosmos 2322 3.5 23:23:27 10° NNW 23:29:09 88° ENE 23:29:31 79° SE
Cosmos 1833 4.0 23:28:44 75° SW 23:29:13 85° WNW 23:34:56 10° NNE
Cosmos 1378 Rocket 4.0 23:25:02 10° NNW 23:28:49 61° NW 23:28:49 61° NW
COSMOS 2487 4.4 23:32:14 28° NNE 23:32:14 28° NNE 23:34:00 10° NNE
Cosmos 2219 Rocket 2.2 23:32:00 10° NNW 23:37:42 73° ENE 23:38:19 67° ESE
Cosmos 1975 Rocket 3.7 23:38:30 10° N 23:42:25 50° NE 23:42:25 50° NE
Cosmos 2333 4.1 23:37:45 10° NNW 23:43:34 74° WSW 23:43:44 73° SW
Cosmos 1503 Rocket 4.3 23:45:55 57° E 23:45:55 57° E 23:50:53 10° NNE
Cosmos 1072 Rocket 4.5 23:46:51 60° SE 23:47:29 64° E 23:53:31 10° NNE
YAOGAN 11 4.4 23:48:26 68° NNE 23:48:26 68° NNE 23:52:36 10° N
Cosmos 2322 Rocket 3.8 23:43:58 10° NW 23:48:01 21° W 23:48:01 21° W
Helios 1A 3.6 23:49:48 56° NNW 23:49:48 56° NNW 23:53:11 10° NNW
SL-16 R/B 4.4 23:46:15 11° ESE 23:50:43 23° NE 23:55:24 10° N
Cosmos 1486 Rocket 4.0 23:52:11 75° WNW 23:52:16 75° WNW 23:57:30 10° NNE
CZ-2D R/B 4.4 23:51:35 10° ENE 23:53:46 12° E 23:54:54 12° E
